Time,TemperatureF,DewpointF,PressureIn,WindDirection,WindDirectionDegrees,WindSpeedMPH,WindSpeedGustMPH,Humidity,HourlyPrecipIn,Conditions,Clouds,dailyrainin,SoftwareType,DateUTC
2013-07-30 00:03:00,64.0,50.0,30.12,NNW,328,4.0,-999.0,60,-99.99,,,-99.99,,2013-07-30 04:03:00,
2013-07-30 00:23:00,63.0,51.0,30.12,NNE,22,2.0,-999.0,64,-99.99,,,-99.99,,2013-07-30 04:23:00,
2013-07-30 00:43:00,63.0,56.0,30.11,NE,34,0.0,-999.0,77,-99.99,,,-99.99,,2013-07-30 04:43:00,
2013-07-30 00:53:00,63.0,56.0,30.11,NE,34,0.0,-999.0,77,-99.99,,,-99.99,,2013-07-30 04:53:00,
2013-07-30 01:03:00,62.0,56.0,30.12,NE,34,0.0,-999.0,80,-99.99,,,-99.99,,2013-07-30 05:03:00,
2013-07-30 01:13:00,62.0,57.0,30.12,NE,37,0.0,-999.0,85,-99.99,,,-99.99,,2013-07-30 05:13:00,
2013-07-30 01:33:00,62.0,58.0,30.11,NE,38,0.0,-999.0,87,-99.99,,,-99.99,,2013-07-30 05:33:00,
2013-07-30 01:45:00,62.0,59.0,30.11,ENE,74,0.0,-999.0,89,-99.99,,,-99.99,,2013-07-30 05:45:00,
2013-07-30 02:03:00,61.0,58.0,30.11,ENE,74,0.0,-999.0,90,-99.99,,,-99.99,,2013-07-30 06:03:00,
2013-07-30 02:13:00,61.0,58.0,30.10,ENE,63,0.0,-999.0,90,-99.99,,,-99.99,,2013-07-30 06:13:00,
2013-07-30 02:23:00,61.0,58.0,30.10,ENE,63,0.0,-999.0,90,-99.99,,,-99.99,,2013-07-30 06:23:00,
2013-07-30 02:33:00,61.0,58.0,30.09,ENE,61,0.0,-999.0,90,-99.99,,,-99.99,,2013-07-30 06:33:00,
2013-07-30 02:43:00,61.0,57.0,30.09,NE,46,1.0,-999.0,87,-99.99,,,-99.99,,2013-07-30 06:43:00,
2013-07-30 02:53:00,61.0,56.0,30.09,ENE,63,0.0,-999.0,85,-99.99,,,-99.99,,2013-07-30 06:53:00,
2013-07-30 03:03:00,61.0,56.0,30.09,ENE,63,0.0,-999.0,85,-99.99,,,-99.99,,2013-07-30 07:03:00,
2013-07-30 03:13:00,61.0,56.0,30.09,ENE,64,0.0,-999.0,84,-99.99,,,-99.99,,2013-07-30 07:13:00,
2013-07-30 03:23:00,62.0,57.0,30.08,East,97,0.0,-999.0,84,-99.99,,,-99.99,,2013-07-30 07:23:00,
2013-07-30 03:33:00,62.0,57.0,30.08,East,97,0.0,-999.0,84,-99.99,,,-99.99,,2013-07-30 07:33:00,
2013-07-30 03:43:00,62.0,57.0,30.08,East,100,0.0,-999.0,85,-99.99,,,-99.99,,2013-07-30 07:43:00,
2013-07-30 03:53:00,61.0,57.0,30.08,ESE,108,0.0,-999.0,86,-99.99,,,-99.99,,2013-07-30 07:53:00,
2013-07-30 04:03:00,61.0,57.0,30.08,ESE,108,0.0,-999.0,86,-99.99,,,-99.99,,2013-07-30 08:03:00,
2013-07-30 04:13:00,61.0,57.0,30.09,ESE,102,0.0,-999.0,87,-99.99,,,-99.99,,2013-07-30 08:13:00,
2013-07-30 04:23:00,61.0,57.0,30.09,ESE,102,0.0,-999.0,87,-99.99,,,-99.99,,2013-07-30 08:23:00,
2013-07-30 04:33:00,62.0,58.0,30.10,East,93,1.0,-999.0,87,-99.99,,,-99.99,,2013-07-30 08:33:00,
2013-07-30 04:43:00,61.0,57.0,30.09,ENE,67,0.0,-999.0,88,-99.99,,,-99.99,,2013-07-30 08:43:00,
2013-07-30 04:53:00,61.0,58.0,30.10,East,92,0.0,-999.0,90,-99.99,,,-99.99,,2013-07-30 08:53:00,
2013-07-30 05:03:00,61.0,58.0,30.10,East,92,0.0,-999.0,90,-99.99,,,-99.99,,2013-07-30 09:03:00,
2013-07-30 05:13:00,61.0,58.0,30.10,East,91,0.0,-999.0,90,-99.99,,,-99.99,,2013-07-30 09:13:00,
2013-07-30 05:23:00,61.0,58.0,30.10,East,91,0.0,-999.0,90,-99.99,,,-99.99,,2013-07-30 09:23:00,
2013-07-30 05:33:00,61.0,58.0,30.11,ENE,75,0.0,-999.0,90,-99.99,,,-99.99,,2013-07-30 09:33:00,
2013-07-30 05:43:00,61.0,56.0,30.11,East,101,0.0,-999.0,84,-99.99,,,-99.99,,2013-07-30 09:43:00,
2013-07-30 05:53:00,61.0,56.0,30.11,East,101,0.0,-999.0,84,-99.99,,,-99.99,,2013-07-30 09:53:00,
2013-07-30 06:03:00,62.0,55.0,30.12,ESE,110,0.0,-999.0,77,-99.99,,,-99.99,,2013-07-30 10:03:00,
2013-07-30 06:23:00,62.0,55.0,30.12,ESE,110,0.0,-999.0,78,-99.99,,,-99.99,,2013-07-30 10:23:00,
2013-07-30 06:32:00,62.0,56.0,30.12,ESE,110,0.0,-999.0,80,-99.99,,,-99.99,,2013-07-30 10:32:00,
2013-07-30 07:02:00,62.0,54.0,30.13,ESE,119,0.0,-999.0,76,-99.99,,,-99.99,,2013-07-30 11:02:00,
2013-07-30 07:22:00,62.0,56.0,30.13,ESE,113,0.0,-999.0,82,-99.99,,,-99.99,,2013-07-30 11:22:00,
2013-07-30 07:33:00,62.0,58.0,30.15,East,94,0.0,-999.0,88,-99.99,,,-99.99,,2013-07-30 11:33:00,
2013-07-30 08:33:00,63.0,59.0,30.16,SE,135,0.0,-999.0,88,-99.99,,,-99.99,,2013-07-30 12:33:00,
2013-07-30 08:42:00,63.0,59.0,30.15,SE,137,0.0,-999.0,86,-99.99,,,-99.99,,2013-07-30 12:42:00,
2013-07-30 08:53:00,63.0,59.0,30.15,SE,137,0.0,-999.0,86,-99.99,,,-99.99,,2013-07-30 12:53:00,
2013-07-30 09:22:00,64.0,60.0,30.16,SSE,150,0.0,-999.0,86,-99.99,,,-99.99,,2013-07-30 13:22:00,
2013-07-30 09:33:00,65.0,60.0,30.16,SSE,151,0.0,-999.0,84,-99.99,,,-99.99,,2013-07-30 13:33:00,
2013-07-30 09:43:00,65.0,59.0,30.16,SSW,199,0.0,-999.0,82,-99.99,,,-99.99,,2013-07-30 13:43:00,
2013-07-30 10:02:00,65.0,60.0,30.16,SSE,157,0.0,-999.0,83,-99.99,,,-99.99,,2013-07-30 14:02:00,
2013-07-30 10:22:00,66.0,59.0,30.16,SSW,200,0.0,-999.0,77,-99.99,,,-99.99,,2013-07-30 14:22:00,
2013-07-30 10:33:00,66.0,59.0,30.16,SW,226,0.0,-999.0,78,-99.99,,,-99.99,,2013-07-30 14:33:00,
2013-07-30 10:43:00,66.0,58.0,30.15,SSW,213,0.0,-999.0,75,-99.99,,,-99.99,,2013-07-30 14:43:00,
2013-07-30 10:53:00,66.0,58.0,30.15,SSW,213,0.0,-999.0,75,-99.99,,,-99.99,,2013-07-30 14:53:00,
2013-07-30 11:02:00,66.0,59.0,30.15,SSW,213,0.0,-999.0,77,-99.99,,,-99.99,,2013-07-30 15:02:00,
2013-07-30 11:33:00,68.0,57.0,30.14,NW,304,0.0,-999.0,69,-99.99,,,-99.99,,2013-07-30 15:33:00,
2013-07-30 11:43:00,68.0,55.0,30.14,SSW,211,0.0,-999.0,64,-99.99,,,-99.99,,2013-07-30 15:43:00,
2013-07-30 12:02:00,70.0,59.0,30.14,SSW,198,0.0,-999.0,67,-99.99,,,-99.99,,2013-07-30 16:02:00,
2013-07-30 12:23:00,69.0,55.0,30.14,NNW,346,0.0,-999.0,62,-99.99,,,-99.99,,2013-07-30 16:23:00,
2013-07-30 12:33:00,69.0,52.0,30.15,NNW,338,1.0,-999.0,55,-99.99,,,-99.99,,2013-07-30 16:33:00,
2013-07-30 12:44:00,70.0,54.0,30.15,West,280,0.0,-999.0,56,-99.99,,,-99.99,,2013-07-30 16:44:00,
2013-07-30 13:02:00,70.0,53.0,30.15,NE,36,1.0,-999.0,54,-99.99,,,-99.99,,2013-07-30 17:02:00,
2013-07-30 13:43:00,73.0,54.0,30.14,West,265,0.0,-999.0,52,-99.99,,,-99.99,,2013-07-30 17:43:00,
2013-07-30 14:23:00,72.0,54.0,30.14,NNW,341,2.0,-999.0,53,-99.99,,,-99.99,,2013-07-30 18:23:00,
2013-07-30 14:32:00,72.0,53.0,30.14,NNE,19,2.0,-999.0,51,-99.99,,,-99.99,,2013-07-30 18:32:00,
2013-07-30 15:22:00,74.0,57.0,30.11,North,5,1.0,-999.0,56,-99.99,,,-99.99,,2013-07-30 19:22:00,
2013-07-30 15:33:00,73.0,58.0,30.11,North,11,1.0,-999.0,59,-99.99,,,-99.99,,2013-07-30 19:33:00,
2013-07-30 16:02:00,75.0,59.0,30.10,North,11,0.0,-999.0,57,-99.99,,,-99.99,,2013-07-30 20:02:00,
2013-07-30 16:12:00,74.0,58.0,30.10,SW,229,0.0,-999.0,57,-99.99,,,-99.99,,2013-07-30 20:12:00,
2013-07-30 16:22:00,74.0,58.0,30.10,SW,229,0.0,-999.0,57,-99.99,,,-99.99,,2013-07-30 20:22:00,
2013-07-30 16:33:00,75.0,60.0,30.10,SW,231,1.0,-999.0,60,-99.99,,,-99.99,,2013-07-30 20:33:00,
2013-07-30 16:43:00,74.0,60.0,30.09,NNE,17,1.0,-999.0,62,-99.99,,,-99.99,,2013-07-30 20:43:00,
2013-07-30 16:52:00,74.0,60.0,30.09,NNE,17,1.0,-999.0,62,-99.99,,,-99.99,,2013-07-30 20:52:00,
2013-07-30 17:02:00,74.0,59.0,30.10,NNW,331,2.0,-999.0,59,-99.99,,,-99.99,,2013-07-30 21:02:00,
2013-07-30 17:12:00,74.0,58.0,30.09,NNW,345,1.0,-999.0,58,-99.99,,,-99.99,,2013-07-30 21:12:00,
2013-07-30 17:32:00,76.0,61.0,30.08,WSW,245,0.0,-999.0,60,-99.99,,,-99.99,,2013-07-30 21:32:00,
2013-07-30 17:42:00,76.0,59.0,30.09,SW,232,0.0,-999.0,56,-99.99,,,-99.99,,2013-07-30 21:42:00,
2013-07-30 17:52:00,76.0,59.0,30.09,SW,232,0.0,-999.0,56,-99.99,,,-99.99,,2013-07-30 21:52:00,
2013-07-30 18:02:00,74.0,60.0,30.08,NW,324,1.0,-999.0,61,-99.99,,,-99.99,,2013-07-30 22:02:00,
2013-07-30 18:12:00,75.0,58.0,30.09,NE,41,1.0,-999.0,56,-99.99,,,-99.99,,2013-07-30 22:12:00,
2013-07-30 18:22:00,75.0,58.0,30.09,NE,41,1.0,-999.0,56,-99.99,,,-99.99,,2013-07-30 22:22:00,
2013-07-30 18:32:00,75.0,59.0,30.09,East,101,0.0,-999.0,58,-99.99,,,-99.99,,2013-07-30 22:32:00,
2013-07-30 18:43:00,72.0,66.0,30.09,ESE,122,1.0,-999.0,82,-99.99,,,-99.99,,2013-07-30 22:43:00,
2013-07-30 18:52:00,70.0,66.0,30.09,East,94,1.0,-999.0,86,-99.99,,,-99.99,,2013-07-30 22:52:00,
2013-07-30 19:02:00,70.0,66.0,30.09,East,94,1.0,-999.0,86,-99.99,,,-99.99,,2013-07-30 23:02:00,
2013-07-30 19:13:00,69.0,66.0,30.09,East,98,0.0,-999.0,89,-99.99,,,-99.99,,2013-07-30 23:13:00,
2013-07-30 19:22:00,68.0,65.0,30.09,East,98,0.0,-999.0,91,-99.99,,,-99.99,,2013-07-30 23:22:00,
2013-07-30 19:32:00,68.0,65.0,30.09,East,98,0.0,-999.0,91,-99.99,,,-99.99,,2013-07-30 23:32:00,
2013-07-30 19:42:00,68.0,66.0,30.10,East,84,0.0,-999.0,93,-99.99,,,-99.99,,2013-07-30 23:42:00,
2013-07-30 19:53:00,67.0,65.0,30.10,ESE,104,0.0,-999.0,94,-99.99,,,-99.99,,2013-07-30 23:53:00,
2013-07-30 20:02:00,67.0,65.0,30.10,ESE,104,0.0,-999.0,94,-99.99,,,-99.99,,2013-07-31 00:02:00,
2013-07-30 20:12:00,67.0,66.0,30.10,ESE,115,0.0,-999.0,95,-99.99,,,-99.99,,2013-07-31 00:12:00,
2013-07-30 20:32:00,66.0,65.0,30.09,ESE,102,0.0,-999.0,96,-99.99,,,-99.99,,2013-07-31 00:32:00,
2013-07-30 20:43:00,66.0,65.0,30.09,ENE,58,0.0,-999.0,96,-99.99,,,-99.99,,2013-07-31 00:43:00,
2013-07-30 20:53:00,66.0,65.0,30.10,ESE,103,0.0,-999.0,97,-99.99,,,-99.99,,2013-07-31 00:53:00,
2013-07-30 21:02:00,66.0,65.0,30.10,ESE,103,0.0,-999.0,97,-99.99,,,-99.99,,2013-07-31 01:02:00,
2013-07-30 21:12:00,66.0,65.0,30.10,ESE,103,0.0,-999.0,97,-99.99,,,-99.99,,2013-07-31 01:12:00,
2013-07-30 21:22:00,66.0,65.0,30.10,East,94,0.0,-999.0,98,-99.99,,,-99.99,,2013-07-31 01:22:00,
2013-07-30 21:32:00,65.0,64.0,30.10,ESE,109,0.0,-999.0,98,-99.99,,,-99.99,,2013-07-31 01:32:00,
2013-07-30 21:52:00,65.0,64.0,30.10,ESE,106,0.0,-999.0,98,-99.99,,,-99.99,,2013-07-31 01:52:00,
2013-07-30 22:12:00,65.0,64.0,30.11,East,95,0.0,-999.0,97,-99.99,,,-99.99,,2013-07-31 02:12:00,
2013-07-30 22:22:00,65.0,64.0,30.11,ESE,112,0.0,-999.0,98,-99.99,,,-99.99,,2013-07-31 02:22:00,
2013-07-30 22:32:00,65.0,64.0,30.11,ESE,112,0.0,-999.0,98,-99.99,,,-99.99,,2013-07-31 02:32:00,
2013-07-30 23:02:00,65.0,64.0,30.11,ESE,111,0.0,-999.0,98,-99.99,,,-99.99,,2013-07-31 03:02:00,
2013-07-30 23:22:00,65.0,64.0,30.11,ESE,115,0.0,-999.0,98,-99.99,,,-99.99,,2013-07-31 03:22:00,
2013-07-30 23:32:00,65.0,64.0,30.10,SSE,149,0.0,-999.0,98,-99.99,,,-99.99,,2013-07-31 03:32:00,
2013-07-30 23:52:00,65.0,64.0,30.10,ESE,119,0.0,-999.0,98,-99.99,,,-99.99,,2013-07-31 03:52:00,